Location: ???????
(55.4231°N, 38.5570°E)
Time: 15:19:05
(UTC+00:00)

Cosmos 1470 Rocket - Pass Details

Date: 05 August 2024
Orbit: 600 x 628 km, 82.5° (Epoch: 18 September)

Event Time Altitude Azimuth Distance (km) Brightness Sun altitude
Exits shadow 00:18:08 - 189° (S) 2,040 5.7 -9.6°
Reaches altitude 10° 00:18:22 10° 189° (S) 1,945 5.6 -9.6°
Maximum altitude 00:22:41 87° 100° (E) 614 3.6 -9.2°
Drops below altitude 10° 00:27:03 10° 13° (NNE) 1,972 7.2 -8.8°
Sets 00:29:17 0° 13° (NNE) 2,885 8.2 -8.6°
